TimeCST,TemperatureF,Dew PointF,Humidity,Sea Level PressureIn,VisibilityMPH,Wind Direction,Wind SpeedMPH,Gust SpeedMPH,PrecipitationIn,Events,Conditions,WindDirDegrees,DateUTC
12:57 AM,30.9,16.0,54,30.35,10.0,ESE,6.9,-,N/A,,Overcast,120,2013-11-25 06:57:00
1:57 AM,30.9,14.0,50,30.34,10.0,SE,6.9,-,N/A,,Overcast,140,2013-11-25 07:57:00
2:57 AM,32.0,14.0,48,30.33,10.0,SE,4.6,-,N/A,,Overcast,140,2013-11-25 08:57:00
3:57 AM,32.0,16.0,52,30.33,10.0,SSE,5.8,-,N/A,,Overcast,160,2013-11-25 09:57:00
4:57 AM,32.0,10.0,40,30.31,10.0,South,5.8,-,N/A,,Overcast,170,2013-11-25 10:57:00
5:57 AM,32.0,12.0,44,30.30,10.0,South,8.1,-,N/A,,Overcast,170,2013-11-25 11:57:00
6:08 AM,30.2,21.2,69,30.29,10.0,SSW,13.8,-,0.00,,Overcast,200,2013-11-25 12:08:00
6:29 AM,30.2,23.0,75,30.28,10.0,SSW,8.1,-,0.00,,Overcast,210,2013-11-25 12:29:00
6:57 AM,30.0,23.0,75,30.32,10.0,South,9.2,-,0.00,,Overcast,180,2013-11-25 12:57:00
7:57 AM,30.0,23.0,75,30.30,10.0,South,8.1,-,0.00,,Overcast,180,2013-11-25 13:57:00
8:57 AM,30.0,23.0,75,30.30,10.0,South,3.5,-,N/A,,Overcast,170,2013-11-25 14:57:00
9:57 AM,30.0,25.0,82,30.31,10.0,SE,5.8,-,0.00,,Overcast,140,2013-11-25 15:57:00
10:46 AM,32.0,24.8,75,30.26,10.0,SE,4.6,-,0.00,,Overcast,140,2013-11-25 16:46:00
10:49 AM,33.8,24.8,70,30.26,10.0,Calm,Calm,-,0.00,,Overcast,0,2013-11-25 16:49:00
10:57 AM,33.8,24.8,70,30.26,10.0,Variable,3.5,-,0.00,,Overcast,0,2013-11-25 16:57:00
10:59 AM,33.1,24.1,70,30.30,10.0,Calm,Calm,-,0.00,,Overcast,0,2013-11-25 16:59:00
11:57 AM,34.0,24.1,67,30.27,10.0,Calm,Calm,-,N/A,,Overcast,0,2013-11-25 17:57:00
12:57 PM,34.0,26.1,73,30.24,10.0,Variable,3.5,-,N/A,,Overcast,0,2013-11-25 18:57:00
1:57 PM,34.0,27.0,75,30.21,10.0,Calm,Calm,-,N/A,,Overcast,0,2013-11-25 19:57:00
2:57 PM,35.1,28.0,76,30.22,10.0,SSW,4.6,-,N/A,,Overcast,210,2013-11-25 20:57:00
3:57 PM,34.0,28.0,79,30.22,10.0,Calm,Calm,-,N/A,,Overcast,0,2013-11-25 21:57:00
4:57 PM,34.0,28.0,79,30.23,10.0,Calm,Calm,-,N/A,,Overcast,0,2013-11-25 22:57:00
5:57 PM,34.0,28.9,82,30.21,10.0,NNW,4.6,-,N/A,,Overcast,330,2013-11-25 23:57:00
6:40 PM,33.8,28.4,81,30.20,10.0,NNW,5.8,-,N/A,,Overcast,340,2013-11-26 00:40:00
6:49 PM,33.8,28.4,81,30.18,10.0,NNW,6.9,-,N/A,,Overcast,340,2013-11-26 00:49:00
6:57 PM,33.8,28.4,81,30.18,10.0,North,8.1,-,N/A,,Overcast,350,2013-11-26 00:57:00
6:59 PM,34.0,28.9,82,30.22,10.0,NNW,6.9,-,N/A,,Overcast,340,2013-11-26 00:59:00
7:12 PM,33.8,28.4,81,30.18,10.0,NNW,9.2,-,N/A,,Overcast,340,2013-11-26 01:12:00
7:20 PM,33.8,28.4,81,30.18,10.0,NNW,8.1,-,N/A,,Overcast,330,2013-11-26 01:20:00
7:40 PM,33.8,28.4,81,30.19,10.0,Calm,Calm,-,N/A,,Overcast,0,2013-11-26 01:40:00
7:57 PM,33.1,28.9,85,30.22,10.0,NNW,5.8,-,N/A,,Overcast,340,2013-11-26 01:57:00
8:06 PM,33.8,28.4,81,30.19,10.0,North,4.6,-,N/A,,Overcast,360,2013-11-26 02:06:00
8:43 PM,33.8,28.4,81,30.18,10.0,North,4.6,-,N/A,,Overcast,360,2013-11-26 02:43:00
8:57 PM,33.1,30.0,89,30.22,10.0,North,3.5,-,N/A,,Overcast,350,2013-11-26 02:57:00
9:31 PM,33.8,30.2,87,30.19,10.0,North,3.5,-,N/A,,Overcast,10,2013-11-26 03:31:00
9:57 PM,33.8,30.2,87,30.18,10.0,NNW,4.6,-,0.00,Rain,Light Rain,340,2013-11-26 03:57:00
9:59 PM,33.1,30.0,89,30.21,10.0,NNW,4.6,-,0.00,Rain,Light Rain,340,2013-11-26 03:59:00
10:51 PM,32.0,30.2,93,30.18,9.0,Calm,Calm,-,0.00,,Overcast,0,2013-11-26 04:51:00
10:54 PM,32.0,30.2,93,30.19,9.0,NW,3.5,-,0.00,,Overcast,310,2013-11-26 04:54:00
10:57 PM,33.1,30.0,89,30.22,9.0,NW,4.6,-,0.00,,Overcast,320,2013-11-26 04:57:00
11:52 PM,33.8,30.2,87,30.19,9.0,Calm,Calm,-,N/A,,Overcast,0,2013-11-26 05:52:00
11:57 PM,33.1,30.0,89,30.22,9.0,NW,4.6,-,N/A,,Overcast,320,2013-11-26 05:57:00